Location: Newark
(58.8333°N, 23.5833°E)
Time: 20:03:58
(UTC+00:00)

Vanguard 2 - Pass Details

Date: 29 November 2019
Orbit: 553 x 2938 km, 32.9° (Epoch: 07 December)

Event Time Altitude Azimuth Distance (km) Brightness Sun altitude
Rises 04:55:54 0° 232° (SW) 6,556 12.0 -13.0°
Reaches altitude 10° 05:02:29 10° 217° (SW) 5,215 11.6 -12.2°
Maximum altitude 05:10:50 18° 182° (S) 3,988 11.4 -11.2°
Drops below altitude 10° 05:17:29 10° 145° (SE) 4,017 12.2 -10.4°
Sets 05:21:33 0° 127° (SE) 4,587 13.4 -9.9°
